Location: Newark
(15.4608°S, 41.1635°W)
Time: 07:27:11
(UTC+00:00)

Transit 4A - Pass Details

Date: 13 March 2021
Orbit: 869 x 975 km, 66.8° (Epoch: 22 April)

Event Time Altitude Azimuth Distance (km) Brightness Sun altitude
Rises 21:53:47 0° 331° (NNW) 3,441 11.2 -13.7°
Reaches altitude 10° 21:56:17 10° 327° (NNW) 2,505 10.5 -14.3°
Maximum altitude 22:01:57 58° 248° (WSW) 1,013 8.4 -15.6°
Drops below altitude 10° 22:07:42 10° 169° (S) 2,543 10.2 -17.0°
Sets 22:10:16 0° 165° (SSE) 3,497 10.8 -17.6°
